{"data":{"norad_id":56810,"epoch":"2026-09-20T07:25:33.379104Z","epoch_age_seconds":134054,"freshness":"FRESH","line1":"1 56810U 23078AV  26263.30941411  .00000374  00000+0  39150-4 0  9997","line2":"2 56810  69.9997 213.6963 0003231 265.7209  94.3580 14.98333303181838","mean_motion":14.98333303,"eccentricity":0.0003231,"inclination_deg":69.9997,"raan_deg":213.6963,"arg_perigee_deg":265.7209,"mean_anomaly_deg":94.358,"bstar":3.915e-5,"rev_number":18183,"period_min":96.106787262674,"perigee_km":569.8000726853,"apogee_km":574.29128073099,"semimajor_km":6950.1826767081,"source":"CELESTRAK","updated_at":"2026-09-21T09:00:33.512807Z"}}